Flag for U.S.A. Weather past 2 weeks in Flint, Michigan, U.S.A.

Now
66 °F

Mostly cloudy.


Feels Like: 66 °F
Forecast: 59 / 71 °F
Wind: 5 mph from Northwest

Location: Bishop International Airport

Current Time: Jul 1, 2015 at 1:38:29 AM

Latest Report: Jun 30, 2015 at 11:53 PM


Visibility: 8 mi

Pressure: 29.80 "Hg

Humidity: 87%

Dew point: 62 °F

Location of FlintLocation

Historic Weather in Flint — Graph

°F

Flint temperature yesterday

Maximum temperature yesterday: 75 °F (at 2:53 PM)
Minimum temperature yesterday: 60 °F (at 1:53 AM)
Average temperature yesterday: 67 °F

Past Weeks' High & Low Weather Summary

 TemperatureHumidityPressure
High85 °F (Jun 21, 5:53 PM)91% (Jun 30, 9:53 PM)30.16 "Hg (Jun 30, 9:53 PM)
Low51 °F (Jun 20, 4:53 AM)35% (Jun 24, 3:53 PM)29.67 "Hg (Jun 22, 11:53 PM)
Average70 °F67%29.94 "Hg
* Reported Jun 16 12:01 AM — Jun 30 11:53 PM, Flint, Weather by CustomWeather, © 2015

Note: Actual official high and low records may vary slightly from our data, if they occured in-between our weather recording intervals... More about our weather records

Advertising

Flint weather history for previous 24 hours

 ConditionsComfort  
Time TempWeatherWind HumidityBarometerVisibility
11:53 PM
Tue, Jun 30
66 °FMostly cloudy.5 mph87%29.80 "Hg8 mi
10:53 PM65 °FFog.7 mph91%29.80 "Hg5 mi
9:53 PM65 °FFog.3 mph91%29.78 "Hg4 mi
8:57 PM67 °FPartly sunny.3 mph87%29.78 "Hg8 mi
7:53 PM70 °FThundershowers. Mostly cloudy.6 mph76%29.75 "Hg6 mi
6:53 PM72 °FMore clouds than sun.7 mph68%29.73 "Hg10 mi
6:00 PM73 °FPassing clouds.5 mph66%29.75 "Hg10 mi
4:53 PM74 °FOvercast.6 mph60%29.74 "Hg10 mi
3:53 PM75 °FBroken clouds.6 mph58%29.75 "Hg10 mi
2:53 PM75 °FBroken clouds.8 mph60%29.76 "Hg10 mi
1:53 PM74 °FScattered clouds.3 mph57%29.77 "Hg10 mi
1:01 PM73 °FBroken clouds.No wind64%29.79 "Hg10 mi
11:53 AM71 °FPartly sunny.3 mph66%29.80 "Hg10 mi
11:03 AM69 °FPartly sunny.No wind73%29.81 "Hg10 mi
10:53 AM69 °FPartly sunny.3 mph73%29.80 "Hg10 mi
9:53 AM67 °FOvercast.3 mph79%29.81 "Hg10 mi
8:53 AM66 °FMostly cloudy.No wind81%29.81 "Hg10 mi
7:53 AM65 °FMostly cloudy.No wind81%29.81 "Hg9 mi
6:53 AM64 °FOvercast.No wind81%29.80 "Hg10 mi
5:53 AM63 °FOvercast.3 mph84%29.79 "Hg10 mi
4:53 AM62 °FOvercast.No wind80%29.79 "Hg10 mi
3:53 AM61 °FOvercast.5 mph87%29.80 "Hg10 mi
2:53 AM60 °FPassing clouds.No wind86%29.82 "Hg10 mi
1:53 AM60 °FPassing clouds.No wind83%29.82 "Hg10 mi
Weather by CustomWeather, © 2015

See weather overviewHow to use our weather pages